• In Moldova, Republic
  • List of Countries
  • For 7 days
  • Water Temperature
  • Satellite Maps
  • Weather Map
  • Weather Widgets
  • user-avatar
    Login

    Hourly Weather Naftalan

    Today, 29 May, Monday

    Time Temperature Precipitation Wind Pressure Humidity
    00:00 +18°C° 0 mm 2 mps 764 mmHg 81%
    01:00 +18°C° 0 mm 2 mps 764 mmHg 82%
    02:00 +19°C° 0 mm 1 mps 765 mmHg 82%
    03:00 +18°C° 0 mm 1 mps 765 mmHg 85%
    04:00 +19°C° 0 mm 1 mps 765 mmHg 80%
    05:00 +20°C° 0 mm 1 mps 765 mmHg 76%
    06:00 +21°C° 0 mm 2 mps 766 mmHg 71%
    07:00 +23°C° 0 mm 2 mps 766 mmHg 62%
    08:00 +25°C° 0 mm 2 mps 766 mmHg 53%
    09:00 +27°C° 0 mm 2 mps 766 mmHg 44%
    10:00 +28°C° 0 mm 2 mps 766 mmHg 41%
    11:00 +29°C° 0 mm 3 mps 766 mmHg 38%
    12:00 +30°C° 0 mm 4 mps 766 mmHg 36%
    13:00 +30°C° 0 mm 4 mps 766 mmHg 36%
    14:00 +29°C° 0 mm 5 mps 766 mmHg 37%
    15:00 +29°C° 0 mm 5 mps 766 mmHg 38%
    16:00 +28°C° 0 mm 5 mps 766 mmHg 42%
    17:00 +26°C° 0 mm 5 mps 766 mmHg 46%
    18:00 +25°C° 0 mm 5 mps 766 mmHg 50%
    19:00 +23°C° 0 mm 4 mps 766 mmHg 56%
    20:00 +21°C° 0 mm 4 mps 767 mmHg 61%
    21:00 +20°C° 0 mm 4 mps 767 mmHg 67%
    22:00 +20°C° 0 mm 3 mps 767 mmHg 70%
    23:00 +19°C° 0 mm 3 mps 767 mmHg 73%

    Tomorrow, 30 May, Tuesday

    Time Temperature Precipitation Wind Pressure Humidity
    00:00 +19°C° 0 mm 3 mps 767 mmHg 76%
    01:00 +18°C° 0 mm 3 mps 766 mmHg 79%
    02:00 +18°C° 0 mm 3 mps 766 mmHg 82%
    03:00 +17°C° 0 mm 2 mps 766 mmHg 85%
    04:00 +18°C° 0 mm 2 mps 766 mmHg 82%
    05:00 +19°C° 0 mm 2 mps 766 mmHg 79%
    06:00 +20°C° 0 mm 2 mps 766 mmHg 76%
    07:00 +23°C° 0 mm 1 mps 765 mmHg 68%
    08:00 +24°C° 0 mm 1 mps 765 mmHg 59%
    09:00 +26°C° 0 mm 1 mps 765 mmHg 51%
    10:00 +27°C° 0 mm 2 mps 764 mmHg 47%
    11:00 +29°C° 0 mm 2 mps 764 mmHg 43%
    12:00 +30°C° 0 mm 3 mps 763 mmHg 39%
    13:00 +30°C° 0 mm 3 mps 763 mmHg 39%
    14:00 +32°C° 0 mm 4 mps 762 mmHg 38%
    15:00 +32°C° 0 mm 4 mps 761 mmHg 37%
    16:00 +29°C° 0 mm 4 mps 761 mmHg 42%
    17:00 +28°C° 0 mm 4 mps 761 mmHg 47%
    18:00 +26°C° 0 mm 4 mps 761 mmHg 52%
    19:00 +25°C° 0 mm 4 mps 761 mmHg 58%
    20:00 +22°C° 0 mm 3 mps 761 mmHg 65%
    21:00 +20°C° 0 mm 3 mps 761 mmHg 71%
    22:00 +20°C° 0 mm 2 mps 761 mmHg 73%
    23:00 +20°C° 0 mm 2 mps 761 mmHg 75%

    Day after tomorrow, 31 May, Wednesday

    Time Temperature Precipitation Wind Pressure Humidity
    00:00 +20°C° 0 mm 1 mps 760 mmHg 77%
    01:00 +20°C° 0 mm 1 mps 760 mmHg 77%
    02:00 +20°C° 0 mm 1 mps 760 mmHg 77%
    03:00 +20°C° 0 mm 1 mps 760 mmHg 77%
    04:00 +21°C° 0 mm 1 mps 760 mmHg 71%
    05:00 +23°C° 0 mm 1 mps 760 mmHg 65%
    06:00 +25°C° 0 mm 1 mps 760 mmHg 58%
    07:00 +27°C° 0 mm 2 mps 760 mmHg 53%
    08:00 +28°C° 0 mm 2 mps 760 mmHg 47%
    09:00 +30°C° 0 mm 3 mps 760 mmHg 41%
    10:00 +31°C° 0 mm 3 mps 760 mmHg 40%
    11:00 +33°C° 0 mm 4 mps 760 mmHg 38%
    12:00 +33°C° 0 mm 5 mps 759 mmHg 36%
    13:00 +33°C° 0 mm 5 mps 759 mmHg 36%
    14:00 +33°C° 0 mm 5 mps 758 mmHg 36%
    15:00 +33°C° 0 mm 5 mps 758 mmHg 36%
    16:00 +30°C° 0 mm 5 mps 758 mmHg 40%
    17:00 +29°C° 0 mm 5 mps 757 mmHg 44%
    18:00 +27°C° 0 mm 5 mps 757 mmHg 48%
    19:00 +25°C° 0 mm 5 mps 758 mmHg 54%
    20:00 +23°C° 0 mm 4 mps 758 mmHg 59%
    21:00 +21°C° 0 mm 4 mps 758 mmHg 65%
    22:00 +20°C° 0 mm 4 mps 758 mmHg 65%
    23:00 +20°C° 0 mm 4 mps 758 mmHg 65%

    1 June, Thursday

    Time Temperature Precipitation Wind Pressure Humidity
    00:00 +20°C° 0 mm 3 mps 758 mmHg 66%
    01:00 +20°C° 0 mm 3 mps 758 mmHg 66%
    02:00 +19°C° 0 mm 3 mps 758 mmHg 67%
    03:00 +19°C° 0 mm 3 mps 758 mmHg 68%
    04:00 +20°C° 0 mm 3 mps 758 mmHg 65%
    05:00 +21°C° 0 mm 4 mps 759 mmHg 62%
    06:00 +22°C° 0 mm 4 mps 759 mmHg 60%
    07:00 +25°C° 0 mm 4 mps 759 mmHg 53%
    08:00 +27°C° 0 mm 4 mps 759 mmHg 47%
    09:00 +29°C° 0 mm 4 mps 759 mmHg 41%
    10:00 +32°C° 0 mm 4 mps 759 mmHg 37%
    11:00 +33°C° 0 mm 4 mps 759 mmHg 34%
    12:00 +34°C° 0 mm 4 mps 758 mmHg 31%
    13:00 +33°C° 0 mm 5 mps 758 mmHg 34%
    14:00 +33°C° 0 mm 6 mps 758 mmHg 37%
    15:00 +32°C° 0 mm 7 mps 758 mmHg 40%
    16:00 +29°C° 0 mm 7 mps 758 mmHg 43%
    17:00 +28°C° 0 mm 6 mps 758 mmHg 46%
    18:00 +26°C° 0 mm 6 mps 758 mmHg 49%
    19:00 +25°C° 0 mm 5 mps 759 mmHg 54%
    20:00 +23°C° 0 mm 5 mps 759 mmHg 60%
    21:00 +21°C° 0 mm 4 mps 760 mmHg 65%
    22:00 +21°C° 0 mm 4 mps 760 mmHg 67%
    23:00 +20°C° 0 mm 3 mps 760 mmHg 70%

    2 June, Friday

    Time Temperature Precipitation Wind Pressure Humidity
    00:00 +20°C° 0 mm 3 mps 760 mmHg 72%
    01:00 +19°C° 0 mm 2 mps 760 mmHg 75%
    02:00 +19°C° 0 mm 2 mps 760 mmHg 77%
    03:00 +18°C° 0 mm 2 mps 760 mmHg 79%
    04:00 +20°C° 0 mm 1 mps 760 mmHg 75%
    05:00 +21°C° 0 mm 1 mps 761 mmHg 71%
    06:00 +22°C° 0 mm 1 mps 761 mmHg 66%
    07:00 +24°C° 0 mm 1 mps 762 mmHg 58%
    08:00 +26°C° 0 mm 2 mps 762 mmHg 50%
    09:00 +28°C° 0 mm 2 mps 762 mmHg 41%
    10:00 +29°C° 0 mm 2 mps 762 mmHg 38%
    11:00 +30°C° 0 mm 2 mps 762 mmHg 35%
    12:00 +31°C° 0 mm 3 mps 761 mmHg 32%
    13:00 +32°C° 0 mm 4 mps 761 mmHg 33%
    14:00 +32°C° 0 mm 4 mps 761 mmHg 33%
    15:00 +33°C° 0 mm 5 mps 761 mmHg 33%
    16:00 +30°C° 0 mm 5 mps 761 mmHg 36%
    17:00 +29°C° 0 mm 5 mps 761 mmHg 39%
    18:00 +27°C° 0 mm 6 mps 762 mmHg 42%
    19:00 +26°C° 0 mm 5 mps 762 mmHg 46%
    20:00 +23°C° 0 mm 4 mps 762 mmHg 51%
    21:00 +22°C° 0 mm 3 mps 763 mmHg 56%
    22:00 +21°C° 0 mm 3 mps 763 mmHg 57%
    23:00 +21°C° 0 mm 2 mps 763 mmHg 59%

    3 June, Saturday

    Time Temperature Precipitation Wind Pressure Humidity
    00:00 +20°C° 0 mm 2 mps 762 mmHg 61%
    01:00 +20°C° 0 mm 2 mps 762 mmHg 62%
    02:00 +20°C° 0 mm 1 mps 762 mmHg 64%
    03:00 +20°C° 0 mm 1 mps 762 mmHg 66%
    04:00 +21°C° 0 mm 1 mps 763 mmHg 61%
    05:00 +23°C° 0 mm 1 mps 763 mmHg 57%
    06:00 +24°C° 0 mm 1 mps 764 mmHg 53%
    07:00 +26°C° 0 mm 1 mps 764 mmHg 48%
    08:00 +28°C° 0 mm 1 mps 764 mmHg 43%
    09:00 +29°C° 0 mm 1 mps 764 mmHg 38%
    10:00 +30°C° 0 mm 2 mps 764 mmHg 36%
    11:00 +31°C° 0 mm 3 mps 764 mmHg 35%
    12:00 +33°C° 0 mm 4 mps 764 mmHg 34%
    13:00 +33°C° 0 mm 4 mps 763 mmHg 35%
    14:00 +32°C° 0 mm 4 mps 763 mmHg 37%
    15:00 +32°C° 0 mm 4 mps 763 mmHg 39%
    16:00 +30°C° 0 mm 4 mps 763 mmHg 43%
    17:00 +29°C° 0 mm 4 mps 764 mmHg 46%
    18:00 +27°C° 0 mm 3 mps 764 mmHg 50%
    19:00 +26°C° 0 mm 3 mps 764 mmHg 56%
    20:00 +24°C° 0 mm 2 mps 764 mmHg 62%
    21:00 +23°C° 0 mm 2 mps 765 mmHg 67%
    22:00 +21°C° 0 mm 2 mps 765 mmHg 70%
    23:00 +21°C° 0 mm 2 mps 764 mmHg 73%
    Show more